"read_dt","SO2 (ppb)","flags","PMT voltage (V)","lamp voltage (V)","lamp intensity (Hz)","internal temp (C)","react chamber temp (C)","sample flow (l/min)","pres (mmHg)","SO2 bkg (ppb)","SO2 coefficient"
2016-05-07 00:00:00,1962E-3,5C000400,-0724,0836,12075,032.4,045.6,0.247,756.5,01.16,0.508
2016-05-07 00:01:00,1992E-3,5C000400,-0724,0835,12136,032.4,045.6,0.247,756.6,01.16,0.508
2016-05-07 00:02:00,1998E-3,5C000400,-0724,0835,12120,032.4,045.6,0.246,756.6,01.16,0.508
2016-05-07 00:03:00,1884E-3,5C000400,-0724,0836,12108,032.4,045.5,0.247,756.5,01.16,0.508
2016-05-07 00:04:00,1923E-3,5C000400,-0724,0834,12165,032.4,045.6,0.247,756.6,01.16,0.508
2016-05-07 00:05:00,1907E-3,5C000400,-0724,0835,12225,032.4,045.6,0.247,756.5,01.16,0.508
2016-05-07 00:06:00,1962E-3,5C000400,-0724,0835,12127,032.5,045.6,0.247,756.6,01.16,0.508
2016-05-07 00:07:00,1971E-3,5C000400,-0724,0835,12162,032.4,045.6,0.247,756.5,01.16,0.508
2016-05-07 00:08:00,1883E-3,5C000400,-0724,0835,12184,032.4,045.6,0.247,756.5,01.16,0.508
2016-05-07 00:09:00,2037E-3,5C000400,-0724,0834,12099,032.4,045.6,0.247,756.6,01.16,0.508
2016-05-07 00:10:00,2003E-3,5C000400,-0724,0835,12257,032.5,045.6,0.247,756.5,01.16,0.508
2016-05-07 00:11:00,1983E-3,5C000400,-0724,0835,12245,032.5,045.6,0.247,756.6,01.16,0.508
2016-05-07 00:12:00,1989E-3,5C000400,-0724,0834,12170,032.4,045.6,0.246,756.6,01.16,0.508
2016-05-07 00:13:00,1895E-3,5C000400,-0724,0835,12050,032.5,045.6,0.247,756.6,01.16,0.508
2016-05-07 00:14:00,2030E-3,5C000400,-0724,0836,12155,032.4,045.6,0.247,756.5,01.16,0.508
2016-05-07 00:15:00,2168E-3,5C000400,-0724,0835,12086,032.5,045.6,0.247,756.5,01.16,0.508
2016-05-07 00:16:00,2001E-3,5C000400,-0724,0835,12103,032.5,045.6,0.247,756.6,01.16,0.508
2016-05-07 00:17:00,2048E-3,5C000400,-0724,0836,12129,032.5,045.6,0.247,756.6,01.16,0.508
2016-05-07 00:18:00,1951E-3,5C000400,-0724,0835,12226,032.5,045.6,0.247,756.6,01.16,0.508
2016-05-07 00:19:00,1958E-3,5C000400,-0724,0835,12189,032.5,045.6,0.247,756.6,01.16,0.508
2016-05-07 00:20:00,1840E-3,5C000400,-0724,0835,12056,032.5,045.6,0.247,756.6,01.16,0.508
2016-05-07 00:21:00,1956E-3,5C000400,-0724,0835,12209,032.5,045.6,0.247,756.6,01.16,0.508
2016-05-07 00:22:00,1911E-3,5C000400,-0724,0835,12159,032.5,045.6,0.247,756.5,01.16,0.508
2016-05-07 00:23:00,2027E-3,5C000400,-0724,0835,12101,032.5,045.6,0.247,756.6,01.16,0.508
2016-05-07 00:24:00,2000E-3,5C000400,-0724,0835,12129,032.5,045.6,0.246,756.5,01.16,0.508
2016-05-07 00:25:00,2013E-3,5C000400,-0724,0836,12159,032.5,045.6,0.246,756.5,01.16,0.508
2016-05-07 00:26:00,1792E-3,5C000400,-0724,0835,12090,032.5,045.6,0.247,756.6,01.16,0.508
2016-05-07 00:27:00,1931E-3,5C000400,-0724,0835,12087,032.5,045.6,0.247,756.6,01.16,0.508
2016-05-07 00:28:00,2131E-3,5C000400,-0724,0835,12112,032.5,045.6,0.247,756.6,01.16,0.508
2016-05-07 00:29:00,1924E-3,5C000400,-0724,0835,12181,032.5,045.6,0.247,756.5,01.16,0.508
2016-05-07 00:30:00,1908E-3,5C000400,-0724,0836,12079,032.5,045.6,0.247,756.6,01.16,0.508
2016-05-07 00:31:00,2046E-3,5C000400,-0724,0835,12245,032.5,045.6,0.247,756.5,01.16,0.508
2016-05-07 00:32:00,2003E-3,5C000400,-0724,0835,12099,032.5,045.6,0.246,756.6,01.16,0.508
2016-05-07 00:33:00,2060E-3,5C000400,-0724,0835,12315,032.5,045.6,0.246,756.5,01.16,0.508
2016-05-07 00:34:00,2031E-3,5C000400,-0724,0836,12166,032.5,045.6,0.246,756.5,01.16,0.508
2016-05-07 00:35:00,1969E-3,5C000400,-0724,0835,12208,032.5,045.6,0.247,756.6,01.16,0.508
2016-05-07 00:36:00,1858E-3,5C000400,-0724,0835,12212,032.5,045.6,0.247,756.6,01.16,0.508
2016-05-07 00:37:00,1884E-3,5C000400,-0724,0835,12162,032.5,045.6,0.247,756.6,01.16,0.508
2016-05-07 00:38:00,2039E-3,5C000400,-0724,0836,12097,032.6,045.6,0.247,756.6,01.16,0.508
2016-05-07 00:39:00,2009E-3,5C000400,-0724,0836,11917,032.5,045.6,0.247,756.5,01.16,0.508
2016-05-07 00:40:00,1946E-3,5C000400,-0724,0836,12251,032.6,045.6,0.246,756.6,01.16,0.508
2016-05-07 00:41:00,1861E-3,5C000400,-0724,0835,12147,032.5,045.6,0.246,756.6,01.16,0.508
2016-05-07 00:42:00,2039E-3,5C000400,-0724,0835,12119,032.6,045.6,0.246,756.5,01.16,0.508
2016-05-07 00:43:00,1919E-3,5C000400,-0724,0835,12135,032.6,045.6,0.247,756.5,01.16,0.508
2016-05-07 00:44:00,1943E-3,5C000400,-0724,0835,12140,032.6,045.6,0.247,756.6,01.16,0.508
2016-05-07 00:45:00,1956E-3,5C000400,-0724,0834,12211,032.6,045.6,0.247,756.5,01.16,0.508
2016-05-07 00:46:00,1984E-3,5C000400,-0724,0835,12188,032.6,045.6,0.247,756.5,01.16,0.508
2016-05-07 00:47:00,1948E-3,5C000400,-0724,0835,12196,032.6,045.6,0.247,756.5,01.16,0.508
2016-05-07 00:48:00,1895E-3,5C000400,-0724,0835,12171,032.6,045.6,0.246,756.6,01.16,0.508
2016-05-07 00:49:00,2022E-3,5C000400,-0724,0835,12206,032.6,045.6,0.246,756.6,01.16,0.508
2016-05-07 00:50:00,1890E-3,5C000400,-0724,0835,12154,032.6,045.6,0.246,756.6,01.16,0.508
2016-05-07 00:51:00,1944E-3,5C000400,-0724,0835,12200,032.6,045.6,0.246,756.6,01.16,0.508
2016-05-07 00:52:00,1949E-3,5C000400,-0724,0835,12211,032.6,045.6,0.247,756.6,01.16,0.508
2016-05-07 00:53:00,2087E-3,5C000400,-0724,0836,12238,032.6,045.6,0.247,756.6,01.16,0.508
2016-05-07 00:54:00,1889E-3,5C000400,-0724,0835,12075,032.6,045.6,0.247,756.6,01.16,0.508
2016-05-07 00:55:00,1993E-3,5C000400,-0724,0835,12061,032.6,045.6,0.247,756.6,01.16,0.508
2016-05-07 00:56:00,2000E-3,5C000400,-0724,0836,12173,032.6,045.6,0.246,756.6,01.16,0.508
2016-05-07 00:57:00,2007E-3,5C000400,-0724,0835,12020,032.6,045.6,0.246,756.6,01.16,0.508
2016-05-07 00:58:00,1959E-3,5C000400,-0724,0836,12101,032.7,045.6,0.246,756.6,01.16,0.508
2016-05-07 00:59:00,2021E-3,5C000400,-0724,0836,12107,032.7,045.6,0.246,756.6,01.16,0.508
2016-05-07 01:00:00,1915E-3,5C000400,-0724,0835,12217,032.7,045.6,0.246,756.6,01.16,0.508
2016-05-07 01:01:00,2035E-3,5C000400,-0724,0835,12240,032.7,045.6,0.246,756.6,01.16,0.508
2016-05-07 01:02:00,1871E-3,5C000400,-0724,0835,12101,032.7,045.6,0.247,756.5,01.16,0.508
2016-05-07 01:03:00,2025E-3,5C000400,-0724,0835,12181,032.7,045.6,0.246,756.6,01.16,0.508
2016-05-07 01:04:00,1946E-3,5C000400,-0724,0835,12190,032.7,045.6,0.246,756.6,01.16,0.508
2016-05-07 01:05:00,1948E-3,5C000400,-0724,0835,12171,032.7,045.6,0.246,756.6,01.16,0.508
2016-05-07 01:06:00,2018E-3,5C000400,-0724,0836,12193,032.7,045.6,0.246,756.5,01.16,0.508
2016-05-07 01:07:00,1946E-3,5C000400,-0724,0835,12164,032.7,045.6,0.246,756.6,01.16,0.508
2016-05-07 01:08:00,1999E-3,5C000400,-0724,0836,11972,032.7,045.6,0.246,756.5,01.16,0.508
2016-05-07 01:09:00,1957E-3,5C000400,-0724,0835,12062,032.7,045.6,0.247,756.5,01.16,0.508
2016-05-07 01:10:00,1994E-3,5C000400,-0724,0835,11965,032.7,045.6,0.247,756.6,01.16,0.508
2016-05-07 01:11:00,2092E-3,5C000400,-0724,0835,12148,032.7,045.6,0.246,756.6,01.16,0.508
2016-05-07 01:12:00,1992E-3,5C000400,-0724,0835,12189,032.7,045.6,0.246,756.6,01.16,0.508
2016-05-07 01:13:00,1860E-3,5C000400,-0724,0835,12179,032.7,045.6,0.246,756.6,01.16,0.508
2016-05-07 01:14:00,1957E-3,5C000400,-0724,0835,12164,032.7,045.6,0.246,756.6,01.16,0.508
2016-05-07 01:15:00,1836E-3,5C000400,-0724,0835,12011,032.8,045.6,0.246,756.6,01.16,0.508
2016-05-07 01:16:00,2067E-3,5C000400,-0724,0836,12110,032.7,045.6,0.246,756.6,01.16,0.508
2016-05-07 01:17:00,1963E-3,5C000400,-0724,0835,12193,032.8,045.6,0.246,756.5,01.16,0.508
2016-05-07 01:18:00,1978E-3,5C000400,-0724,0836,12235,032.8,045.6,0.246,756.6,01.16,0.508
2016-05-07 01:19:00,1949E-3,5C000400,-0724,0835,12223,032.8,045.6,0.246,756.6,01.16,0.508
2016-05-07 01:20:00,1921E-3,5C000400,-0724,0835,12137,032.8,045.6,0.246,756.6,01.16,0.508
2016-05-07 01:21:00,1951E-3,5C000400,-0724,0835,12171,032.8,045.6,0.246,756.6,01.16,0.508
2016-05-07 01:22:00,2046E-3,5C000400,-0724,0835,12064,032.8,045.6,0.246,756.6,01.16,0.508
2016-05-07 01:23:00,2000E-3,5C000400,-0724,0835,12108,032.8,045.6,0.246,756.6,01.16,0.508
2016-05-07 01:24:00,1922E-3,5C000400,-0724,0835,12129,032.8,045.6,0.246,756.6,01.16,0.508
2016-05-07 01:25:00,2038E-3,5C000400,-0724,0835,12200,032.8,045.6,0.246,756.6,01.16,0.508
2016-05-07 01:26:00,1801E-3,5C000400,-0724,0835,12232,032.8,045.6,0.246,756.6,01.16,0.508
2016-05-07 01:27:00,1982E-3,5C000400,-0724,0835,12008,032.8,045.6,0.245,756.6,01.16,0.508
2016-05-07 01:28:00,1894E-3,5C000400,-0724,0836,12111,032.8,045.6,0.246,756.6,01.16,0.508
2016-05-07 01:29:00,1935E-3,5C000400,-0724,0835,12011,032.8,045.6,0.246,756.6,01.16,0.508
2016-05-07 01:30:00,2015E-3,5C000400,-0724,0835,12144,032.8,045.6,0.246,756.6,01.16,0.508
2016-05-07 01:31:00,1902E-3,5C000400,-0724,0835,12048,032.8,045.6,0.246,756.6,01.16,0.508
2016-05-07 01:32:00,2017E-3,5C000400,-0724,0835,12238,032.7,045.6,0.246,756.6,01.16,0.508
2016-05-07 01:33:00,1977E-3,5C000400,-0724,0835,12231,032.6,045.6,0.246,756.7,01.16,0.508
2016-05-07 01:34:00,1917E-3,5C000400,-0724,0835,12063,032.6,045.6,0.246,756.6,01.16,0.508
2016-05-07 01:35:00,1904E-3,5C000400,-0724,0835,12096,032.4,045.6,0.246,756.7,01.16,0.508
2016-05-07 01:36:00,1881E-3,5C000400,-0724,0834,12170,032.4,045.6,0.246,756.7,01.16,0.508
2016-05-07 01:37:00,2086E-3,5C000400,-0724,0835,12074,032.4,045.6,0.246,756.7,01.16,0.508
2016-05-07 01:38:00,2045E-3,5C000400,-0724,0834,12056,032.3,045.6,0.246,756.7,01.16,0.508
2016-05-07 01:39:00,1904E-3,5C000400,-0724,0834,12219,032.3,045.6,0.247,756.7,01.16,0.508
2016-05-07 01:40:00,1821E-3,5C000400,-0724,0835,12131,032.2,045.6,0.247,756.7,01.16,0.508
2016-05-07 01:41:00,2093E-3,5C000400,-0724,0836,12242,032.2,045.6,0.247,756.7,01.16,0.508
2016-05-07 01:42:00,1955E-3,5C000400,-0724,0835,12207,032.2,045.5,0.247,756.7,01.16,0.508
2016-05-07 01:43:00,1957E-3,5C000400,-0724,0835,12168,032.1,045.5,0.246,756.7,01.16,0.508
2016-05-07 01:44:00,2115E-3,5C000400,-0724,0834,12043,032.1,045.5,0.246,756.7,01.16,0.508
2016-05-07 01:45:00,1948E-3,5C000400,-0724,0834,12023,032.0,045.6,0.247,756.7,01.16,0.508
2016-05-07 01:46:00,2019E-3,5C000400,-0724,0835,12147,032.0,045.5,0.247,756.8,01.16,0.508
2016-05-07 01:47:00,1967E-3,5C000400,-0724,0835,12135,032.0,045.6,0.247,756.7,01.16,0.508
2016-05-07 01:48:00,1949E-3,5C000400,-0724,0835,12201,031.9,045.6,0.247,756.7,01.16,0.508
2016-05-07 01:49:00,2034E-3,5C000400,-0724,0835,12116,031.9,045.5,0.247,756.7,01.16,0.508
2016-05-07 01:50:00,1917E-3,5C000400,-0724,0835,12201,031.8,045.5,0.248,756.8,01.16,0.508
2016-05-07 01:51:00,1959E-3,5C000400,-0724,0835,12124,031.8,045.5,0.248,756.8,01.16,0.508
2016-05-07 01:52:00,1893E-3,5C000400,-0724,0834,12064,031.8,045.5,0.248,756.8,01.16,0.508
2016-05-07 01:53:00,1873E-3,5C000400,-0724,0835,12149,031.8,045.5,0.248,756.8,01.16,0.508
2016-05-07 01:54:00,2059E-3,5C000400,-0724,0834,12141,031.8,045.5,0.248,756.9,01.16,0.508
2016-05-07 01:55:00,1940E-3,5C000400,-0724,0835,12158,031.7,045.5,0.248,756.8,01.16,0.508
2016-05-07 01:56:00,1930E-3,5C000400,-0724,0835,12295,031.7,045.6,0.248,756.8,01.16,0.508
2016-05-07 01:57:00,2089E-3,5C000400,-0724,0834,12123,031.7,045.6,0.248,756.9,01.16,0.508
2016-05-07 01:58:00,1943E-3,5C000400,-0724,0835,12071,031.6,045.5,0.248,756.9,01.16,0.508
2016-05-07 01:59:00,1951E-3,5C000400,-0724,0834,12117,031.6,045.5,0.248,756.9,01.16,0.508
2016-05-07 02:00:00,1955E-3,5C000400,-0724,0835,12020,031.6,045.5,0.248,756.9,01.16,0.508
2016-05-07 02:01:00,1967E-3,5C000400,-0724,0834,12020,031.6,045.5,0.248,756.9,01.16,0.508
2016-05-07 02:02:00,1877E-3,5C000400,-0724,0834,12180,031.5,045.5,0.248,756.9,01.16,0.508
2016-05-07 02:03:00,1993E-3,5C000400,-0724,0835,12197,031.5,045.5,0.248,756.9,01.16,0.508
2016-05-07 02:04:00,2008E-3,5C000400,-0724,0835,12194,031.5,045.5,0.249,756.9,01.16,0.508
2016-05-07 02:05:00,2002E-3,5C000400,-0724,0834,12038,031.4,045.5,0.249,756.9,01.16,0.508
2016-05-07 02:06:00,1979E-3,5C000400,-0724,0834,12247,031.5,045.5,0.249,756.9,01.16,0.508
2016-05-07 02:07:00,1882E-3,5C000400,-0724,0834,12195,031.4,045.5,0.249,756.9,01.16,0.508
2016-05-07 02:08:00,2036E-3,5C000400,-0724,0834,12132,031.4,045.5,0.249,756.9,01.16,0.508
2016-05-07 02:09:00,1914E-3,5C000400,-0724,0834,11977,031.4,045.5,0.249,756.9,01.16,0.508
2016-05-07 02:10:00,2122E-3,5C000400,-0724,0835,12146,031.4,045.5,0.249,756.9,01.16,0.508
2016-05-07 02:11:00,2163E-3,5C000400,-0724,0834,12333,031.4,045.5,0.249,757.0,01.16,0.508
2016-05-07 02:12:00,1994E-3,5C000400,-0724,0834,12024,031.4,045.5,0.249,756.9,01.16,0.508
2016-05-07 02:13:00,1864E-3,5C000400,-0724,0835,12157,031.4,045.5,0.249,757.0,01.16,0.508
2016-05-07 02:14:00,1924E-3,5C000400,-0724,0834,11940,031.4,045.5,0.249,757.0,01.16,0.508
2016-05-07 02:15:00,2086E-3,5C000400,-0724,0834,12180,031.4,045.5,0.249,756.9,01.16,0.508
2016-05-07 02:16:00,2050E-3,5C000400,-0724,0834,12141,031.4,045.5,0.249,757.0,01.16,0.508
2016-05-07 02:17:00,1913E-3,5C000400,-0724,0835,12067,031.4,045.5,0.249,757.0,01.16,0.508
2016-05-07 02:18:00,1883E-3,5C000400,-0724,0836,12232,031.4,045.5,0.249,756.9,01.16,0.508
2016-05-07 02:19:00,1913E-3,5C000400,-0724,0834,12157,031.4,045.5,0.249,757.0,01.16,0.508
2016-05-07 02:20:00,1962E-3,5C000400,-0724,0834,12153,031.4,045.5,0.249,757.0,01.16,0.508
2016-05-07 02:21:00,1906E-3,5C000400,-0724,0835,12183,031.3,045.5,0.249,757.0,01.16,0.508
2016-05-07 02:22:00,1994E-3,5C000400,-0724,0834,12149,031.3,045.5,0.248,757.0,01.16,0.508
2016-05-07 02:23:00,1984E-3,5C000400,-0724,0834,12179,031.2,045.5,0.248,757.0,01.16,0.508
2016-05-07 02:24:00,2005E-3,5C000400,-0724,0834,12203,031.3,045.5,0.249,757.0,01.16,0.508
2016-05-07 02:25:00,2070E-3,5C000400,-0724,0834,12116,031.2,045.5,0.249,757.0,01.16,0.508
2016-05-07 02:26:00,1803E-3,5C000400,-0724,0834,12055,031.2,045.5,0.249,757.0,01.16,0.508
2016-05-07 02:27:00,1880E-3,5C000400,-0724,0834,12115,031.2,045.5,0.249,757.0,01.16,0.508
2016-05-07 02:28:00,2074E-3,5C000400,-0724,0835,12092,031.1,045.5,0.249,757.0,01.16,0.508
2016-05-07 02:29:00,2074E-3,5C000400,-0724,0835,12260,031.1,045.5,0.249,757.0,01.16,0.508
2016-05-07 02:30:00,2010E-3,5C000400,-0724,0834,12121,031.1,045.5,0.249,756.9,01.16,0.508
2016-05-07 02:31:00,1867E-3,5C000400,-0724,0834,12069,031.1,045.5,0.249,756.9,01.16,0.508
2016-05-07 02:32:00,1931E-3,5C000400,-0724,0835,12195,031.1,045.5,0.250,757.0,01.16,0.508
2016-05-07 02:33:00,2029E-3,5C000400,-0724,0834,12017,031.1,045.5,0.250,757.0,01.16,0.508
2016-05-07 02:34:00,1943E-3,5C000400,-0724,0834,11996,031.1,045.5,0.250,757.1,01.16,0.508
2016-05-07 02:35:00,1863E-3,5C000400,-0724,0835,12229,031.0,045.5,0.250,757.1,01.16,0.508
2016-05-07 02:36:00,1962E-3,5C000400,-0724,0834,12061,031.0,045.5,0.250,757.1,01.16,0.508
2016-05-07 02:37:00,1804E-3,5C000400,-0724,0834,12291,031.0,045.5,0.250,757.1,01.16,0.508
2016-05-07 02:38:00,1947E-3,5C000400,-0724,0835,12247,031.0,045.5,0.250,757.0,01.16,0.508
2016-05-07 02:39:00,2153E-3,5C000400,-0724,0833,12061,031.0,045.5,0.250,757.0,01.16,0.508
2016-05-07 02:40:00,1857E-3,5C000400,-0724,0834,12111,031.0,045.5,0.250,757.1,01.16,0.508
2016-05-07 02:41:00,1873E-3,5C000400,-0724,0835,12180,031.0,045.5,0.250,757.0,01.16,0.508
2016-05-07 02:42:00,1968E-3,5C000400,-0724,0834,12079,031.0,045.5,0.250,757.0,01.16,0.508
2016-05-07 02:43:00,2061E-3,5C000400,-0724,0834,11980,031.0,045.5,0.250,757.1,01.16,0.508
2016-05-07 02:44:00,1946E-3,5C000400,-0724,0834,12114,031.0,045.5,0.249,757.1,01.16,0.508
2016-05-07 02:45:00,1953E-3,5C000400,-0724,0834,12134,031.0,045.5,0.249,757.1,01.16,0.508
2016-05-07 02:46:00,2038E-3,5C000400,-0724,0835,12143,030.9,045.5,0.250,757.1,01.16,0.508
2016-05-07 02:47:00,1913E-3,5C000400,-0724,0834,12148,030.9,045.5,0.250,757.1,01.16,0.508
2016-05-07 02:48:00,1960E-3,5C000400,-0724,0834,12178,030.9,045.5,0.250,757.1,01.16,0.508
2016-05-07 02:49:00,1885E-3,5C000400,-0724,0834,12163,030.9,045.5,0.250,757.1,01.16,0.508
2016-05-07 02:50:00,2050E-3,5C000400,-0724,0834,12269,030.9,045.5,0.250,757.1,01.16,0.508
2016-05-07 02:51:00,1967E-3,5C000400,-0724,0834,12045,030.9,045.5,0.250,757.1,01.16,0.508
2016-05-07 02:52:00,2058E-3,5C000400,-0724,0835,12120,030.9,045.5,0.250,757.1,01.16,0.508
2016-05-07 02:53:00,1973E-3,5C000400,-0724,0834,11989,030.9,045.5,0.250,757.1,01.16,0.508
2016-05-07 02:54:00,1957E-3,5C000400,-0724,0834,12257,030.9,045.5,0.250,757.1,01.16,0.508
2016-05-07 02:55:00,1919E-3,5C000400,-0724,0834,12075,030.9,045.5,0.250,757.1,01.16,0.508
2016-05-07 02:56:00,1908E-3,5C000400,-0724,0834,12241,030.9,045.5,0.250,757.1,01.16,0.508
2016-05-07 02:57:00,2014E-3,5C000400,-0724,0834,12187,030.9,045.5,0.250,757.1,01.16,0.508
2016-05-07 02:58:00,1873E-3,5C000400,-0724,0835,12141,030.9,045.5,0.250,757.1,01.16,0.508
2016-05-07 02:59:00,1992E-3,5C000400,-0724,0835,12214,030.9,045.5,0.250,757.1,01.16,0.508
2016-05-07 03:00:00,1905E-3,5C000400,-0724,0834,12161,030.9,045.5,0.250,757.2,01.16,0.508
2016-05-07 03:01:00,2011E-3,5C000400,-0724,0833,12270,030.8,045.5,0.250,757.1,01.16,0.508
2016-05-07 03:02:00,2008E-3,5C000400,-0724,0834,12187,030.8,045.5,0.250,757.1,01.16,0.508
2016-05-07 03:03:00,2008E-3,5C000400,-0724,0835,12145,030.8,045.5,0.250,757.1,01.16,0.508
2016-05-07 03:04:00,2115E-3,5C000400,-0724,0834,12114,030.8,045.5,0.250,757.1,01.16,0.508
2016-05-07 03:05:00,1854E-3,5C000400,-0724,0833,12152,030.8,045.5,0.250,757.2,01.16,0.508
2016-05-07 03:06:00,2087E-3,5C000400,-0724,0835,12195,030.8,045.5,0.250,757.2,01.16,0.508
2016-05-07 03:07:00,1915E-3,5C000400,-0724,0835,12132,030.8,045.5,0.250,757.2,01.16,0.508
2016-05-07 03:08:00,1849E-3,5C000400,-0724,0834,12204,030.8,045.5,0.250,757.1,01.16,0.508
2016-05-07 03:09:00,1956E-3,5C000400,-0724,0834,12178,030.8,045.5,0.250,757.1,01.16,0.508
2016-05-07 03:10:00,1930E-3,5C000400,-0724,0833,12069,030.8,045.5,0.250,757.1,01.16,0.508
2016-05-07 03:11:00,2015E-3,5C000400,-0724,0834,12195,030.7,045.5,0.250,757.2,01.16,0.508
2016-05-07 03:12:00,1991E-3,5C000400,-0724,0834,12293,030.7,045.5,0.250,757.2,01.16,0.508
2016-05-07 03:13:00,2022E-3,5C000400,-0724,0833,12044,030.7,045.5,0.250,757.1,01.16,0.508
2016-05-07 03:14:00,2056E-3,5C000400,-0724,0835,12290,030.7,045.5,0.250,757.1,01.16,0.508
2016-05-07 03:15:00,2050E-3,5C000400,-0724,0835,12196,030.7,045.5,0.250,757.1,01.16,0.508
2016-05-07 03:16:00,2034E-3,5C000400,-0724,0834,12068,030.7,045.5,0.250,757.1,01.16,0.508
2016-05-07 03:17:00,2001E-3,5C000400,-0724,0834,12055,030.6,045.5,0.250,757.2,01.16,0.508
2016-05-07 03:18:00,2017E-3,5C000400,-0724,0833,12128,030.6,045.5,0.250,757.2,01.16,0.508
2016-05-07 03:19:00,1851E-3,5C000400,-0724,0834,12145,030.6,045.5,0.251,757.2,01.16,0.508
2016-05-07 03:20:00,1930E-3,5C000400,-0724,0834,12120,030.6,045.5,0.251,757.2,01.16,0.508
2016-05-07 03:21:00,1980E-3,5C000400,-0724,0834,12255,030.6,045.5,0.250,757.2,01.16,0.508
2016-05-07 03:22:00,1997E-3,5C000400,-0724,0834,12324,030.6,045.5,0.250,757.2,01.16,0.508
2016-05-07 03:23:00,1899E-3,5C000400,-0724,0835,12180,030.6,045.5,0.250,757.1,01.16,0.508
2016-05-07 03:24:00,1822E-3,5C000400,-0724,0834,12110,030.6,045.5,0.250,757.2,01.16,0.508
2016-05-07 03:25:00,1904E-3,5C000400,-0724,0834,12140,030.6,045.5,0.250,757.1,01.16,0.508
2016-05-07 03:26:00,1957E-3,5C000400,-0724,0834,12164,030.6,045.5,0.250,757.1,01.16,0.508
2016-05-07 03:27:00,1896E-3,5C000400,-0724,0833,12227,030.6,045.5,0.250,757.2,01.16,0.508
2016-05-07 03:28:00,1945E-3,5C000400,-0724,0835,12309,030.6,045.5,0.250,757.2,01.16,0.508
2016-05-07 03:29:00,1984E-3,5C000400,-0724,0834,12316,030.5,045.5,0.250,757.1,01.16,0.508
2016-05-07 03:30:00,2128E-3,5C000400,-0724,0834,12166,030.5,045.5,0.251,757.2,01.16,0.508
2016-05-07 03:31:00,1936E-3,5C000400,-0724,0834,12141,030.5,045.5,0.251,757.2,01.16,0.508
2016-05-07 03:32:00,1926E-3,5C000400,-0724,0834,12198,030.5,045.5,0.251,757.2,01.16,0.508
2016-05-07 03:33:00,1990E-3,5C000400,-0724,0834,12161,030.5,045.5,0.251,757.2,01.16,0.508
2016-05-07 03:34:00,1911E-3,5C000400,-0724,0834,12131,030.5,045.5,0.251,757.2,01.16,0.508
2016-05-07 03:35:00,2006E-3,5C000400,-0724,0835,12143,030.5,045.5,0.250,757.2,01.16,0.508
2016-05-07 03:36:00,2000E-3,5C000400,-0724,0834,12229,030.5,045.5,0.250,757.2,01.16,0.508
2016-05-07 03:37:00,1976E-3,5C000400,-0724,0835,12297,030.4,045.5,0.250,757.2,01.16,0.508
2016-05-07 03:38:00,1823E-3,5C000400,-0724,0834,12077,030.5,045.5,0.251,757.2,01.16,0.508
2016-05-07 03:39:00,1837E-3,5C000400,-0724,0835,12108,030.4,045.5,0.251,757.2,01.16,0.508
2016-05-07 03:40:00,2009E-3,5C000400,-0724,0834,12110,030.4,045.5,0.251,757.2,01.16,0.508
2016-05-07 03:41:00,1926E-3,5C000400,-0724,0834,12205,030.4,045.5,0.251,757.2,01.16,0.508
2016-05-07 03:42:00,1946E-3,5C000400,-0724,0834,12215,030.4,045.5,0.251,757.2,01.16,0.508
2016-05-07 03:43:00,1911E-3,5C000400,-0724,0834,12104,030.4,045.5,0.251,757.2,01.16,0.508
2016-05-07 03:44:00,1991E-3,5C000400,-0724,0834,12130,030.4,045.5,0.251,757.2,01.16,0.508
2016-05-07 03:45:00,1934E-3,5C000400,-0724,0834,12112,030.4,045.5,0.251,757.2,01.16,0.508
2016-05-07 03:46:00,1895E-3,5C000400,-0724,0835,11933,030.4,045.5,0.251,757.2,01.16,0.508
2016-05-07 03:47:00,1983E-3,5C000400,-0724,0834,12152,030.4,045.5,0.251,757.2,01.16,0.508
2016-05-07 03:48:00,1986E-3,5C000400,-0724,0834,12200,030.3,045.5,0.251,757.2,01.16,0.508
2016-05-07 03:49:00,1948E-3,5C000400,-0724,0833,12258,030.3,045.5,0.251,757.2,01.16,0.508
2016-05-07 03:50:00,2016E-3,5C000400,-0724,0834,12248,030.4,045.5,0.250,757.3,01.16,0.508
2016-05-07 03:51:00,1871E-3,5C000400,-0724,0834,12134,030.3,045.5,0.250,757.2,01.16,0.508
2016-05-07 03:52:00,1904E-3,5C000400,-0724,0834,12141,030.4,045.5,0.251,757.2,01.16,0.508
2016-05-07 03:53:00,1855E-3,5C000400,-0724,0834,12075,030.4,045.5,0.251,757.2,01.16,0.508
2016-05-07 03:54:00,1869E-3,5C000400,-0724,0834,12020,030.4,045.5,0.251,757.2,01.16,0.508
2016-05-07 03:55:00,1983E-3,5C000400,-0724,0834,12055,030.4,045.5,0.251,757.2,01.16,0.508
2016-05-07 03:56:00,1911E-3,5C000400,-0724,0834,12221,030.4,045.5,0.251,757.2,01.16,0.508
2016-05-07 03:57:00,1997E-3,5C000400,-0724,0834,12292,030.4,045.5,0.251,757.2,01.16,0.508
2016-05-07 03:58:00,1978E-3,5C000400,-0724,0834,12101,030.4,045.5,0.251,757.2,01.16,0.508
2016-05-07 03:59:00,1941E-3,5C000400,-0724,0834,12088,030.4,045.5,0.251,757.2,01.16,0.508
2016-05-07 04:00:00,1950E-3,5C000400,-0724,0834,12104,030.3,045.5,0.251,757.2,01.16,0.508
2016-05-07 04:01:00,1923E-3,5C000400,-0724,0833,12181,030.4,045.5,0.251,757.3,01.16,0.508
2016-05-07 04:02:00,1836E-3,5C000400,-0724,0834,12281,030.4,045.5,0.251,757.3,01.16,0.508
2016-05-07 04:03:00,1921E-3,5C000400,-0724,0833,12059,030.3,045.5,0.251,757.3,01.16,0.508
2016-05-07 04:04:00,1933E-3,5C000400,-0724,0834,12020,030.3,045.5,0.251,757.3,01.16,0.508
2016-05-07 04:05:00,2036E-3,5C000400,-0724,0834,12193,030.3,045.5,0.251,757.3,01.16,0.508
2016-05-07 04:06:00,1909E-3,5C000400,-0724,0834,12129,030.3,045.5,0.251,757.3,01.16,0.508
2016-05-07 04:07:00,1970E-3,5C000400,-0724,0834,12129,030.2,045.5,0.251,757.3,01.16,0.508
2016-05-07 04:08:00,1925E-3,5C000400,-0724,0834,12037,030.2,045.5,0.251,757.2,01.16,0.508
2016-05-07 04:09:00,1941E-3,5C000400,-0724,0834,12115,030.3,045.5,0.251,757.2,01.16,0.508
2016-05-07 04:10:00,2080E-3,5C000400,-0724,0834,12036,030.4,045.5,0.251,757.2,01.16,0.508
2016-05-07 04:11:00,1918E-3,5C000400,-0724,0834,12040,030.4,045.5,0.251,757.2,01.16,0.508
2016-05-07 04:12:00,1988E-3,5C000400,-0724,0834,12047,030.4,045.5,0.251,757.3,01.16,0.508
2016-05-07 04:13:00,1975E-3,5C000400,-0724,0834,12113,030.4,045.5,0.251,757.3,01.16,0.508
2016-05-07 04:14:00,2038E-3,5C000400,-0724,0834,12101,030.3,045.5,0.251,757.3,01.16,0.508
2016-05-07 04:15:00,1935E-3,5C000400,-0724,0834,12256,030.3,045.5,0.251,757.3,01.16,0.508
2016-05-07 04:16:00,2015E-3,5C000400,-0724,0834,12012,030.3,045.5,0.251,757.3,01.16,0.508
2016-05-07 04:17:00,2070E-3,5C000400,-0724,0834,12185,030.3,045.5,0.251,757.3,01.16,0.508
2016-05-07 04:18:00,1865E-3,5C000400,-0724,0833,12156,030.2,045.5,0.251,757.3,01.16,0.508
2016-05-07 04:19:00,1911E-3,5C000400,-0724,0834,11949,030.2,045.5,0.251,757.3,01.16,0.508
2016-05-07 04:20:00,1864E-3,5C000400,-0724,0833,12222,030.3,045.5,0.251,757.3,01.16,0.508